This demonstration page uses our WeatherBlox Daily Observations layout. Learn more.

Left ArrowRight Arrow

Hourly Observations for August 19, 2021

Temp ( °F °C ) Dew Point ( °F °C ) Humidity (%) Winds ( mph kmh ) Pressure ( in mb ) Visibility ( mi km ) Precip ( " mm )
12:56 am 00:56 Partly Cloudy 69 20.6 66 18.9 90 90 SE 8 13 29.96 1015 10 16 0.00 0.00
1:56 am 01:56 Mostly Clear 69 20.6 66 18.9 90 90 SE 8 13 29.96 1014 10 16 0.00 0.00
2:56 am 02:56 Clear 69 20.6 66 18.9 90 90 SSE 10 17 29.94 1014 10 16 0.00 0.00
3:56 am 03:56 Clear 68 20 66 18.9 93 93 SE 7 11 29.94 1014 10 16 0.00 0.00
4:56 am 04:56 Clear 67 19.4 66 18.9 97 97 SE 8 13 29.94 1014 10 16 0.00 0.00
5:56 am 05:56 Clear 66 18.9 65 18.3 96 96 SE 6 9 29.94 1014 9 14 0.00 0.00
6:56 am 06:56 Partly Cloudy with Mist and Fog 66 18.9 65 18.3 96 96 SE 3 6 29.95 1014 5 8 0.00 0.00
7:48 am 07:48 Partly Cloudy with Mist and Fog 66 19 66 19 100 100 ESE 6 9 29.93 1014 4 6 0.00 0.00
7:56 am 07:56 Mostly Cloudy with Mist and Fog 67 19.4 66 18.9 97 97 SE 7 11 29.95 1014 4 6 0.00 0.00
8:56 am 08:56 Cloudy with Mist and Fog 70 21.1 69 20.6 97 97 SSE 12 19 29.95 1014 5 8 0.00 0.00
9:56 am 09:56 Cloudy 72 22.2 70 21.1 94 94 SSE 13 20 29.96 1014 8 13 0.00 0.00
10:51 am 10:51 Cloudy 73 23 70 21 89 89 SSE 10 17 29.91 1013 10 16 0.00 0.00
10:56 am 10:56 Cloudy 74 23.3 71 21.7 91 91 SSE 10 17 29.96 1014 10 16 0.00 0.00
11:19 am 11:19 Cloudy 75 24 72 22 89 89 SSE 15 24 29.90 1012 10 16 0.00 0.00
11:45 am 11:45 Cloudy 75 24 72 22 89 89 SSE 15 24 29.91 1013 10 16 0.00 0.00
11:56 am 11:56 Cloudy 76 24.4 70 21.1 82 82 SSE 17 28 29.96 1014 10 16 0.00 0.00
12:56 pm 12:56 Cloudy 78 25.6 71 21.7 79 79 SSE 18 30 29.95 1014 10 16 0.00 0.00
1:39 pm 13:39 Partly Cloudy 82 28 70 21 66 66 SE 20 31 29.85 1011 10 16 0.00 0.00
1:56 pm 13:56 Mostly Cloudy 82 27.8 70 21.1 67 67 SE 20 31 29.92 1013 10 16 0.00 0.00
2:19 pm 14:19 Mostly Cloudy 84 29 70 21 62 62 SE 18 30 29.83 1010 10 16 0.00 0.00
2:38 pm 14:38 Mostly Cloudy 84 29 70 21 62 62 SE 18 30 29.82 1010 10 16 0.00 0.00
2:56 pm 14:56 Mostly Cloudy 85 29.4 70 21.1 61 61 SE 16 26 29.89 1012 10 16 0.00 0.00
3:56 pm 15:56 Mostly Cloudy 85 29.4 70 21.1 61 61 SSE 17 28 29.87 1012 10 16 0.00 0.00
4:56 pm 16:56 Partly Cloudy 87 30.6 70 21.1 57 57 SE 17 28 29.83 1010 10 16 0.00 0.00
5:56 pm 17:56 Sunny 85 29.4 69 20.6 59 59 SE 18 30 29.81 1010 10 16 0.00 0.00
6:56 pm 18:56 Sunny 84 28.9 68 20 59 59 SE 13 20 29.80 1009 10 16 0.00 0.00
7:56 pm 19:56 Sunny 78 25.6 70 21.1 76 76 E 7 11 29.81 1010 10 16 0.00 0.00
8:56 pm 20:56 Clear 76 24.4 70 21.1 82 82 SE 8 13 29.83 1010 10 16 0.00 0.00
9:56 pm 21:56 Clear 74 23.3 69 20.6 85 85 SE 9 15 29.83 1010 10 16 0.00 0.00
10:56 pm 22:56 Clear 73 22.8 69 20.6 87 87 SE 10 17 29.83 1010 10 16 0.00 0.00
11:27 pm 23:27 Clear with Nearby Thunderstorms 73 23 70 21 89 89 SSE 10 17 29.78 1009 10 16 0.00 0.00
11:42 pm 23:42 Mostly Clear 73 23 70 21 89 89 SE 13 20 29.76 1008 10 16 0.00 0.00
11:56 pm 23:56 Partly Cloudy 74 23.3 69 20.6 85 85 SSE 13 20 29.82 1010 10 16 0.00 0.00

Powered by AerisWeather